星链-36191(STARLINK-36191)

导读

STARLINK-36191是美国SpaceX星链星座的成员,于2025年12月10日发射。星链项目旨在构建全球卫星互联网星座,为地面偏远地区及全球范围提供高速网络服务。该卫星加入星座后,将推进星链网络覆盖范围与服务能力的提升,进一步完善低轨卫星互联网的基础设施布局。

基本信息
目录编号:
67023
目录名称:
STARLINK-36191
国际标识:
2025-293W
轨道中心:
EARTH
卫星名称:
星链-36191
卫星全名:
星链-36191(STARLINK-36191)
卫星状态:
在轨 (已飞行185 天)
发射日期:
2025-12-10 UTC
国别 :
美国 (US)
星等 :
--
轨道信息
数据来源 国际轨道数据 AOE轨道数据
星历时间 2026-06-12T14:51:20+0800
23小时前
查看轨道信息
2026-06-11T02:00:00+0800
2天前
查看轨道信息
半长轴 6950.105km 6950.213km
偏心率 0.0004937 0.0003642
轨道倾角 69.999° 70.001°
近地点辐角 290.185° 265.044°
升交点赤经 216.088° 219.962°
平近点角 69.878° 94.067°
近地点 568.536km 569.544km
远地点 575.4km 574.608km
周期 96.105分钟 96.107分钟
每日圈数 14.983586 14.983235
详细信息
固有亮度:
5
最大亮度:
2.5
卫星平台:
Starlink V1.0
覆盖范围:
全球
运营商:
太空探索技术公司
运营商所在国:
美国
制造商(研发单位):
太空探索技术公司
制造商所在国:
美国
使用方式:
暂无
卫星简介
Starlink 计划是 SpaceX 推出的全球卫星互联网项目,通过发射低轨道卫星,为全球尤其是偏远地区提供高速、低延迟的互联网服务。自 2019 年起,Starlink 已部署数千颗卫星,旨在缩小全球数字鸿沟,推动互联网普及。该项目还为军事、航空等行业提供通信支持,带来广泛经济效益。
2D轨道图
3D轨道图
轨道高度分析图
轨道倾角分析图
轨道综合分析图
查看轨道综合分析图